Printer-friendly version

IAU Minor Planet Center

Minor Planet Center

MPEC 2007-E34 : 2007 EH

The following Minor Planet Electronic Circular may be linked-to from your own Web pages, but must not otherwise be redistributed electronically.


Read MPEC 2007-E33 Read MPEC 2007-E35


M.P.E.C. 2007-E34                                Issued 2007 Mar. 10, 02:03 UT

     The Minor Planet Electronic Circulars contain information on unusual
         minor planets and routine data on comets.  They are published
   on behalf of Commission 20 of the International Astronomical Union by the
          Minor Planet Center, Smithsonian Astrophysical Observatory,
                          Cambridge, MA 02138, U.S.A.

             Prepared using the Tamkin Foundation Computer Network

                              MPC@CFA.HARVARD.EDU
          URL http://cfa-www.harvard.edu/iau/mpc.html  ISSN 1523-6714

                                    2007 EH

Observations:
     K07E00H* C2007 03 09.22959 10 52 54.80 +13 05 35.3          20.0 V EE034703
     K07E00H  C2007 03 09.23771 10 52 55.52 +13 06 27.0          19.5 V EE034703
     K07E00H  C2007 03 09.24586 10 52 56.20 +13 07 19.9          19.5 V EE034703
     K07E00H  C2007 03 09.25392 10 52 56.92 +13 08 12.4          19.3 V EE034703
     K07E00H  C2007 03 09.38306 10 53 08.84 +13 22 43.7          20.4 V EE034703
     K07E00H  C2007 03 09.38694 10 53 09.39 +13 23 09.8          20.0 V EE034703
     K07E00H  C2007 03 09.39084 10 53 09.88 +13 23 37.3          18.3 V EE034703
     K07E00H  C2007 03 09.39478 10 53 10.60 +13 24 05.7          19.5 V EE034703
     K07E00H  C2007 03 10.04362 10 58 33.26 +15 31 05.3                 EE034J95
     K07E00H  C2007 03 10.04600 10 58 34.59 +15 31 51.8                 EE034J95
     K07E00H  C2007 03 10.04833 10 58 35.93 +15 32 36.4          18.1 R EE034J95
     K07E00H  C2007 03 10.06171 10 58 43.79 +15 36 57.8                 EE034J95
     K07E00H  C2007 03 10.06323 10 58 44.69 +15 37 27.8                 EE034J95
     K07E00H  C2007 03 10.06466 10 58 45.58 +15 37 56.3          18.0 R EE034J95

Observer details:
703 Catalina Sky Survey.  Observer E. C. Beshore.  Measurers E. C. Beshore,
    E. J. Christensen, G. J. Garradd, A. R. Gibbs, A. D. Grauer, R. E. Hill,
    R. A. Kowalski, S. M. Larson, R. H. McNaught.  0.68-m Schmidt + CCD.
J95 Great Shefford.  Observer P. Birtwhistle.  0.40-m f/6.0 Schmidt-Cassegrain
    + CCD.

Orbital elements:
2007 EH                                                  Earth MOID = 0.0012 AU
Epoch 2007 Apr. 10.0 TT = JDT 2454200.5                 MPC
M 356.02169              (2000.0)            P               Q
n   0.31134713     Peri.  246.02245     -0.51785616     +0.85546227
a   2.1559539      Node   352.78673     -0.77578646     -0.47112035
e   0.6558075      Incl.    1.39147     -0.36052791     -0.21501142
P   3.17           H   27.7           G   0.15           U   6
Residuals in seconds of arc
070309 703  0.3+  0.5+    070309 703  1.0+  0.7-    070310 J95  0.1+  0.0
070309 703  0.0   0.0     070309 703  1.1+  0.7-    070310 J95  0.1+  0.1+
070309 703  0.7-  0.3+    070309 703 (4.3+  0.1-)   070310 J95  0.1-  0.0
070309 703  0.5-  0.5+    070310 J95  0.4+  0.4-    070310 J95  0.3+  0.2+
070309 703  0.3-  0.4+    070310 J95  0.0   0.4+

Ephemeris:
2007 EH                  a,e,i = 2.16, 0.66, 1                   q = 0.7421
Date    TT    R. A. (2000) Decl.     Delta      r     Elong.  Phase     V
2007 03 01.0  10 46.78   +10 28.1    0.101    1.092   177.4     2.4    23.2
2007 03 02.0  10 46.90   +10 32.5    0.0909   1.082   176.9     2.9    23.0
2007 03 03.0  10 47.06   +10 37.9    0.0808   1.072   176.1     3.6    22.7
2007 03 04.0  10 47.28   +10 44.6    0.0707   1.062   175.3     4.4    22.5
2007 03 05.0  10 47.57   +10 53.3    0.0606   1.052   174.4     5.3    22.2
2007 03 06.0  10 47.99   +11 05.2    0.0506   1.042   173.4     6.3    21.8
2007 03 07.0  10 48.64   +11 22.7    0.0406   1.032   172.4     7.3    21.3
2007 03 08.0  10 49.72   +11 51.2    0.0306   1.023   171.3     8.4    20.8
2007 03 09.0  10 51.88   +12 47.0    0.0206   1.013   170.1     9.7    19.9
2007 03 10.0  10 58.17   +15 25.4    0.0107   1.003   167.8    12.1    18.6

2007 03 10.1  10 59.52   +15 59.0    0.00972  1.002   167.3    12.5    18.4
2007 03 10.2  11 01.19   +16 40.1    0.00873  1.002   166.8    13.1    18.2
2007 03 10.3  11 03.30   +17 31.5    0.00775  1.001   166.1    13.8    17.9
2007 03 10.4  11 06.06   +18 37.9    0.00676  1.000   165.1    14.8    17.7
2007 03 10.5  11 09.81   +20 06.5    0.00578  0.999   163.8    16.1    17.4
2007 03 10.6  11 15.20   +22 10.5    0.00481  0.998   161.9    18.0    17.0
2007 03 10.7  11 23.54   +25 14.0    0.00385  0.997   158.9    21.1    16.7
2007 03 10.8  11 38.38   +30 14.7    0.00292  0.996   153.5    26.4    16.2
2007 03 10.9  12 11.42   +39 26.0    0.00204  0.995   142.9    37.0    15.7
2007 03 11.0  14 05.71   +56 08.9    0.00135  0.994   118.6    61.3    15.5
2007 03 11.1  19 30.08   +51 02.4    0.00121  0.993    74.0   105.9    17.0
2007 03 11.2  21 21.59   +25 33.7    0.00177  0.992    41.8   138.2    20.5
2007 03 11.3  21 54.03   +12 50.4    0.00260  0.991    27.9   152.0    23.6

Timothy B. Spahr             (C) Copyright 2007 MPC           M.P.E.C. 2007-E34

Read MPEC 2007-E33 Read MPEC 2007-E35


Our Web policy. Index to the CBAT/MPC/ICQ pages.


Valid HTML 4.01!